Temperature
3 2 2 2 2 1 1 1 0 0 0 0 1 1 1 1 1 1 1 1 1 1 1 1 1 0 0 0 1 1 1 2 2 3 3 4 4 5
2 2 2 1 1 1 1 0 0 -0 -0 -0 -0 -0 -0 -1 -0 -0 0 0 0 0 0 0 -0 -0 -0 -0 -0 0 0 1 1 1 2 3 4 4
1 1 1 0 0 0 -0 -0 -1 -1 -1 -1 -1 -1 -1 -1 -1 -1 -1 -1 -1 -1 -1 -1 -1 -1 -1 -1 -1 -1 -0 -0 0 1 1 2 3 3
1 0 -0 -1 -1 -1 -1 -2 -2 -2 -2 -2 -2 -2 -2 -2 -2 -2 -2 -2 -1 -1 -1 -1 -1 -1 -1 -1 -1 -1 -1 -1 -0 -0 0 1 1 2
-0 -1 -1 -2 -2 -2 -2 -3 -3 -3 -3 -3 -3 -3 -3 -3 -3 -3 -2 -2 -2 -2 -2 -2 -2 -2 -2 -2 -2 -2 -2 -1 -1 -1 -0 0 1 1
-1 -2 -2 -3 -3 -3 -4 -4 -4 -4 -4 -4 -4 -3 -3 -3 -3 -3 -3 -3 -3 -2 -3 -3 -2 -2 -2 -2 -2 -2 -2 -2 -2 -1 -1 -1 -0 0
-2 -3 -3 -4 -4 -4 -4 -4 -4 -4 -4 -4 -4 -4 -4 -4 -3 -3 -3 -3 -3 -3 -3 -3 -3 -3 -3 -2 -3 -2 -2 -2 -2 -2 -1 -1 -1 -1
-3 -4 -4 -4 -4 -4 -4 -4 -4 -4 -4 -4 -3 -4 -4 -4 -4 -4 -4 -4 -4 -3 -3 -3 -3 -3 -3 -3 -3 -3 -3 -3 -3 -2 -2 -2 -1 -1
-4 -4 -5 -5 -5 -5 -5 -4 -4 -4 -4 -4 -4 -4 -4 -4 -4 -4 -4 -4 -4 -4 -4 -4 -4 -4 -3 -3 -3 -3 -3 -3 -3 -3 -3 -2 -2 -2
-5 -5 -5 -5 -5 -5 -5 -4 -4 -4 -4 -4 -4 -4 -4 -4 -4 -4 -4 -4 -4 -4 -4 -4 -4 -4 -4 -4 -4 -4 -4 -4 -4 -4 -3 -3 -3 -2
-5 -5 -5 -5 -5 -5 -5 -4 -4 -4 -4 -4 -4 -4 -4 -4 -4 -3 -3 -4 -4 -4 -4 -4 -4 -4 -4 -4 -4 -4 -4 -4 -4 -4 -4 -4 -3 -3
-5 -5 -5 -5 -5 -5 -5 -5 -4 -4 -4 -4 -4 -4 -4 -4 -4 -4 -4 -4 -4 -4 -4 -4 -4 -4 -4 -4 -4 -4 -4 -4 -4 -4 -4 -4 -4 -4
-5 -5 -5 -6 -5 -5 -5 -5 -4 -4 -4 -4 -4 -4 -4 -4 -4 -4 -4 -4 -4 -5 -5 -5 -5 -5 -5 -5 -5 -4 -4 -4 -5 -5 -5 -5 -5 -4
-6 -6 -6 -6 -5 -5 -5 -5 -5 -5 -5 -5 -5 -4 -4 -4 -4 -4 -4 -5 -5 -5 -5 -5 -5 -5 -5 -5 -5 -5 -5 -5 -5 -5 -5 -5 -5 -5
-6 -6 -6 -6 -6 -6 -5 -5 -5 -5 -5 -5 -5 -5 -5 -5 -5 -5 -5 -5 -5 -5 -5 -5 -6 -5 -5 -6 -6 -6 -6 -5 -5 -5 -5 -5 -5 -5
-6 -6 -6 -6 -6 -6 -6 -6 -6 -6 -6 -6 -6 -5 -5 -5 -5 -5 -5 -6 -6 -6 -6 -6 -6 -6 -6 -6 -6 -6 -6 -6 -6 -6 -6 -6 -6 -6
-6 -6 -6 -6 -6 -6 -6 -6 -6 -6 -6 -6 -6 -6 -6 -6 -6 -6 -6 -6 -6 -6 -6 -6 -6 -6 -6 -6 -6 -6 -6 -6 -6 -6 -6 -6 -6 -6
-7 -7 -7 -7 -7 -7 -7 -7 -7 -7 -7 -7 -6 -6 -6 -6 -6 -6 -6 -6 -7 -6 -6 -6 -7 -7 -7 -7 -7 -7 -7 -6 -6 -7 -7 -7 -7 -6
-7 -7 -7 -7 -7 -7 -7 -7 -7 -7 -7 -7 -7 -7 -7 -7 -6 -7 -7 -7 -7 -7 -7 -7 -7 -7 -7 -7 -7 -6 -7 -7 -7 -7 -7 -7 -7 -7
-8 -8 -8 -7 -7 -7 -7 -7 -7 -7 -7 -7 -7 -7 -7 -7 -7 -7 -7 -7 -7 -7 -7 -7 -7 -7 -7 -7 -7 -7 -7 -7 -7 -7 -7 -7 -7 -7
-8 -8 -8 -8 -8 -8 -8 -8 -8 -8 -8 -8 -7 -7 -7 -7 -7 -7 -7 -7 -7 -7 -7 -7 -7 -7 -8 -8 -8 -8 -7 -7 -8 -8 -8 -8 -8 -8
-8 -8 -8 -8 -8 -8 -8 -8 -8 -8 -8 -8 -8 -8 -8 -8 -8 -8 -8 -8 -8 -8 -8 -8 -8 -8 -8 -8 -8 -8 -8 -8 -8 -8 -9 -9 -9 -9
-9 -9 -9 -8 -8 -8 -8 -8 -8 -8 -8 -8 -8 -8 -8 -8 -8 -8 -8 -8 -8 -8 -8 -8 -8 -9 -9 -9 -9 -9 -9 -9 -9 -9 -8 -8 -9 -9
Wind_Speed
9 10 10 9 8 9 9 9 13 20 18 10 7 7 8 13 17 17 16 23 28 28 29 29 30 31 32 32 33 34 34 35 35 35 35 36 36 36
8 10 10 9 8 8 9 9 10 15 21 12 7 8 8 11 22 20 17 26 28 29 29 29 30 31 31 32 32 33 33 34 34 35 36 36 36 35
9 10 11 10 8 8 8 9 9 10 19 18 8 7 9 10 12 14 17 16 18 28 30 31 31 31 31 31 31 32 32 33 33 34 35 36 36 36
10 10 11 11 11 10 9 10 10 10 14 21 14 8 10 9 10 11 12 14 13 25 30 31 31 31 30 30 30 31 31 31 32 32 33 34 35 35
10 11 12 12 14 12 12 12 11 13 12 16 18 10 8 8 10 12 13 11 14 21 26 28 29 30 29 29 29 29 29 30 30 30 30 31 32 33
12 12 13 14 15 15 15 14 13 13 13 15 17 13 10 9 9 10 12 9 12 12 17 21 25 27 28 28 27 27 27 28 29 29 29 29 29 29
12 12 14 19 23 20 17 13 12 13 13 14 16 15 12 9 10 9 13 10 10 10 10 11 11 10 12 20 23 25 25 26 27 28 28 28 28 28
12 12 14 18 22 27 29 27 23 16 13 14 15 15 15 12 10 11 12 13 12 6 9 11 8 10 9 8 19 24 24 25 25 26 26 27 27 28
12 12 14 15 21 14 20 26 25 28 26 18 17 17 16 13 12 14 14 14 14 7 7 10 8 10 8 11 21 22 22 23 23 23 24 24 25 25
12 13 15 14 15 17 14 14 15 16 20 16 15 16 16 15 14 15 15 15 13 10 9 12 9 9 10 8 18 21 21 21 21 21 21 21 21 22
13 13 15 14 23 28 20 16 16 14 20 25 26 25 27 28 22 13 11 12 13 9 7 8 8 7 7 8 12 20 21 21 21 20 20 20 19 18
11 12 20 22 27 29 18 15 17 16 14 15 18 20 18 19 24 14 10 11 11 8 6 6 7 5 5 5 7 7 10 16 19 19 19 18 18 10
12 11 11 25 29 29 26 17 21 21 14 13 13 11 10 10 10 10 9 10 11 9 4 4 5 6 6 3 3 5 6 6 7 9 14 17 18 13
13 11 14 27 30 30 24 23 28 24 10 9 10 10 9 9 8 8 8 9 9 10 7 6 6 5 6 5 4 3 4 5 5 5 5 11 13 16
15 24 28 31 29 21 23 27 22 11 9 10 10 9 8 7 6 5 6 7 8 8 8 9 9 6 7 6 4 4 3 4 5 5 5 5 5 5
16 20 27 26 21 21 19 14 9 8 10 10 9 8 6 5 6 5 5 5 6 6 7 9 9 9 8 7 6 5 4 4 4 5 5 4 4 5
18 13 11 10 9 9 8 8 7 7 8 7 8 8 7 6 6 5 5 5 6 6 5 4 6 7 7 6 6 6 5 5 4 5 5 5 5 6
21 12 11 10 10 9 9 9 8 8 8 8 7 7 7 7 6 4 4 5 6 6 5 4 4 4 4 6 10 8 7 6 5 5 5 6 7 6
14 10 10 10 9 9 9 9 9 8 8 7 8 7 7 6 6 5 5 6 6 6 5 5 5 6 7 7 6 11 9 7 6 6 7 7 8 7
9 10 10 10 9 9 9 9 9 8 7 7 7 7 6 6 6 5 5 6 6 6 5 5 6 8 9 7 4 5 12 9 7 8 7 6 6 9
10 10 10 10 10 9 9 9 8 8 8 7 7 7 6 6 6 6 6 9 8 6 7 7 7 9 5 3 5 5 6 12 12 7 6 6 6 6
11 10 10 10 10 10 9 9 8 8 8 7 7 6 6 6 7 7 6 6 6 6 7 5 4 4 5 7 8 7 6 6 11 17 16 13 7 8
11 11 10 10 10 9 9 9 9 8 7 7 7 6 6 6 6 6 6 6 6 6 6 5 4 5 6 7 8 8 9 8 7 8 10 17 21 21
Wind_Direction
258 258 259 258 255 255 255 255 271 284 283 268 260 264 276 284 285 281 270 271 272 270 269 269 270 270 270 268 266 265 264 263 262 261 258 254 250 244
264 265 266 266 262 257 256 259 256 269 280 276 257 255 265 276 282 284 279 279 277 275 274 273 272 271 270 269 267 264 262 260 259 258 257 255 252 248
283 281 278 276 275 271 269 267 264 264 276 282 268 260 258 265 274 275 276 273 273 274 275 275 274 272 271 269 267 265 262 260 258 256 255 254 252 249
289 291 292 294 289 285 280 276 274 270 274 283 284 272 262 263 267 269 275 275 269 273 274 273 273 272 271 269 268 266 263 261 258 256 254 253 252 251
283 285 287 289 287 284 281 279 277 278 275 280 285 281 273 269 272 273 271 272 272 273 274 273 273 272 271 270 268 266 264 261 258 256 255 254 253 251
274 274 277 277 278 277 278 274 273 273 271 274 279 281 276 266 265 271 274 265 268 270 271 271 270 271 270 270 269 268 265 263 259 256 253 253 253 253
272 272 274 279 280 281 280 275 269 269 271 272 275 278 277 272 268 267 272 273 266 260 263 264 266 263 265 267 268 270 268 264 260 257 253 251 250 249
283 281 282 285 285 286 286 287 285 281 280 277 280 278 279 275 271 268 271 275 276 240 249 261 253 256 252 246 259 264 265 265 263 259 255 252 250 247
286 287 289 288 291 283 284 286 285 283 281 278 278 277 279 276 273 273 270 269 271 258 257 268 257 259 254 254 259 260 261 262 264 263 258 254 251 248
283 283 284 283 282 285 279 274 270 270 272 273 266 267 269 268 262 265 269 270 268 259 247 264 259 255 253 246 255 256 259 260 261 261 260 256 253 249
283 283 286 286 288 293 291 284 282 277 278 276 272 271 270 272 269 266 261 266 271 264 230 245 255 252 248 245 248 252 254 256 257 258 256 255 253 250
286 282 288 291 293 294 291 286 286 285 278 277 275 275 275 274 275 268 262 266 270 269 227 226 241 232 251 242 234 239 247 253 255 256 255 252 248 244
294 293 288 294 296 296 294 289 286 288 283 279 278 272 265 259 256 250 242 248 259 261 235 222 232 219 228 247 236 224 221 229 243 254 257 254 248 237
298 295 292 296 297 298 297 293 294 297 291 286 283 279 272 263 254 245 239 238 243 253 251 242 244 227 224 228 233 225 216 216 218 226 230 248 249 243
295 297 299 300 301 300 295 295 297 294 288 286 283 278 271 266 259 249 241 241 245 247 248 243 244 238 230 231 220 207 210 220 213 216 218 220 222 226
294 294 297 297 296 293 294 294 287 279 285 283 282 279 277 270 264 254 252 246 254 258 238 233 236 237 240 235 228 220 203 208 207 206 207 214 212 207
302 298 295 293 291 288 287 287 285 284 287 280 281 283 278 271 263 249 246 245 250 258 250 228 226 230 236 234 236 230 220 220 214 202 202 220 223 213
307 301 299 297 296 296 297 296 292 288 285 283 281 277 275 273 266 253 245 246 251 251 243 227 215 223 232 241 232 235 226 224 218 207 204 218 231 222
305 297 295 294 293 293 292 291 291 290 287 284 280 277 274 269 265 259 251 250 249 246 240 223 212 216 230 242 241 219 221 224 217 215 215 218 229 226
292 292 293 292 291 291 290 288 288 289 287 282 278 275 271 269 265 259 252 251 252 247 242 227 215 214 225 233 234 229 217 217 220 226 226 225 233 238
296 293 292 291 291 290 288 287 285 285 283 280 276 273 269 265 264 260 257 261 259 249 244 239 233 229 223 214 240 243 233 226 226 225 217 221 232 233
294 293 293 291 292 290 288 285 284 283 281 276 272 269 265 264 262 259 256 258 255 248 247 247 232 220 213 229 242 248 249 242 240 243 240 232 222 223
295 294 292 291 290 289 286 283 281 282 279 276 272 265 263 264 262 258 256 254 253 250 247 245 236 226 230 232 241 247 248 247 242 242 247 247 245 248
Height
1478 1475 1472 1469 1467 1464 1462 1459 1453 1441 1432 1434 1435 1436 1436 1434 1433 1431 1428 1427 1426 1424 1423 1421 1420 1418 1417 1417 1417 1418 1419 1421 1423 1425 1428 1431 1434 1438
1470 1467 1463 1460 1457 1455 1452 1450 1446 1439 1426 1422 1424 1425 1425 1424 1423 1421 1419 1417 1416 1415 1413 1412 1410 1409 1407 1407 1406 1407 1407 1409 1411 1414 1416 1420 1423 1426
1461 1458 1454 1451 1448 1445 1442 1439 1436 1432 1422 1412 1414 1415 1414 1413 1412 1411 1408 1406 1405 1404 1403 1401 1400 1399 1397 1396 1396 1396 1397 1398 1400 1402 1405 1408 1412 1415
1451 1448 1444 1441 1437 1434 1431 1428 1425 1423 1418 1407 1402 1404 1403 1403 1401 1400 1398 1396 1394 1393 1392 1391 1389 1388 1387 1386 1386 1386 1386 1387 1389 1391 1394 1397 1400 1404
1442 1438 1434 1430 1426 1423 1420 1417 1414 1412 1408 1402 1394 1393 1392 1392 1391 1388 1387 1385 1383 1382 1381 1380 1379 1378 1377 1376 1376 1376 1376 1377 1379 1380 1383 1385 1389 1393
1433 1428 1424 1421 1416 1413 1410 1406 1404 1401 1398 1394 1387 1384 1382 1382 1381 1378 1375 1374 1372 1372 1370 1369 1368 1368 1367 1367 1367 1366 1366 1367 1368 1370 1372 1375 1378 1382
1422 1419 1415 1412 1408 1405 1402 1398 1395 1392 1388 1384 1379 1376 1373 1373 1371 1369 1366 1364 1361 1362 1360 1359 1358 1357 1357 1357 1357 1357 1357 1357 1358 1360 1362 1365 1368 1371
1413 1409 1406 1402 1399 1395 1393 1390 1388 1384 1380 1376 1372 1368 1365 1364 1363 1361 1358 1355 1351 1352 1351 1348 1349 1347 1347 1347 1347 1347 1347 1348 1349 1350 1352 1355 1358 1361
1405 1400 1396 1393 1390 1386 1382 1380 1377 1375 1372 1369 1364 1360 1358 1356 1355 1352 1350 1347 1344 1344 1343 1339 1340 1338 1339 1339 1339 1339 1339 1340 1340 1341 1343 1346 1349 1352
1398 1393 1389 1384 1382 1378 1373 1369 1366 1364 1362 1359 1355 1351 1349 1347 1346 1343 1341 1338 1335 1335 1335 1332 1331 1330 1330 1330 1331 1331 1332 1332 1333 1333 1335 1337 1340 1343
1389 1385 1382 1377 1373 1370 1366 1360 1356 1353 1352 1349 1346 1343 1340 1338 1337 1334 1332 1330 1326 1325 1326 1325 1323 1323 1322 1322 1323 1324 1325 1325 1326 1326 1328 1330 1332 1335
1380 1376 1373 1370 1365 1362 1358 1352 1347 1344 1341 1338 1335 1332 1330 1328 1327 1326 1324 1322 1319 1317 1317 1317 1316 1316 1315 1314 1315 1316 1318 1318 1319 1320 1321 1323 1326 1328
1372 1367 1364 1361 1357 1353 1349 1344 1340 1336 1332 1328 1325 1322 1320 1318 1317 1316 1315 1314 1312 1311 1311 1311 1309 1309 1310 1309 1309 1310 1312 1313 1314 1314 1316 1317 1320 1322
1364 1360 1355 1351 1347 1344 1340 1335 1332 1328 1324 1320 1317 1314 1312 1310 1308 1307 1306 1305 1305 1304 1304 1304 1303 1303 1304 1303 1304 1305 1306 1307 1309 1309 1311 1312 1314 1317
1357 1352 1347 1343 1338 1334 1330 1326 1323 1319 1315 1312 1309 1306 1304 1302 1301 1299 1298 1298 1297 1296 1296 1296 1297 1297 1298 1298 1299 1300 1301 1302 1304 1305 1306 1308 1310 1312
1348 1342 1338 1333 1329 1325 1321 1318 1315 1312 1308 1305 1302 1299 1297 1296 1294 1293 1292 1291 1290 1290 1290 1290 1291 1292 1292 1293 1294 1294 1296 1297 1298 1300 1302 1304 1306 1308
1340 1334 1329 1325 1320 1317 1314 1311 1308 1305 1302 1299 1296 1293 1291 1290 1288 1287 1287 1286 1285 1284 1284 1285 1285 1286 1286 1288 1288 1289 1290 1292 1294 1296 1298 1299 1300 1303
1333 1327 1322 1318 1315 1311 1307 1304 1301 1298 1295 1293 1290 1288 1286 1284 1283 1282 1282 1281 1280 1280 1279 1280 1280 1281 1281 1281 1283 1283 1285 1286 1288 1290 1292 1293 1295 1297
1326 1321 1317 1313 1309 1305 1302 1298 1295 1292 1290 1287 1285 1283 1281 1280 1278 1277 1277 1276 1275 1275 1275 1275 1276 1276 1276 1276 1276 1278 1279 1280 1282 1284 1285 1287 1288 1291
1319 1315 1311 1307 1303 1299 1296 1293 1289 1286 1284 1281 1279 1278 1276 1275 1274 1273 1272 1271 1270 1270 1269 1270 1270 1270 1270 1271 1271 1271 1273 1274 1276 1277 1279 1280 1282 1285
1312 1308 1305 1301 1297 1293 1290 1287 1283 1280 1278 1276 1274 1272 1271 1270 1268 1267 1267 1266 1265 1265 1264 1264 1264 1265 1265 1266 1265 1264 1266 1268 1269 1270 1272 1273 1275 1276
1306 1302 1298 1294 1291 1287 1284 1280 1277 1274 1272 1270 1268 1267 1265 1264 1263 1262 1261 1260 1259 1259 1258 1258 1258 1259 1259 1259 1258 1258 1259 1260 1262 1263 1265 1266 1266 1266
1300 1296 1292 1288 1284 1281 1277 1274 1271 1268 1266 1264 1263 1261 1260 1258 1257 1256 1255 1254 1253 1252 1252 1251 1251 1251 1251 1251 1251 1251 1251 1252 1253 1254 1254 1256 1258 1259